Regional Weather Roundup
Issued by NWS Wakefield, VA

Home | Current Version | Previous Version | Text Only | Print | Product List | Glossary On
Versions: 1 2 3 4 5 6 7 8 9 10 11 12 13 14 15 16 17 18 19 20 21 22 23 24 25 26 27
000
ASUS41 KAKQ 040915
RWRAKQ

REGIONAL WEATHER ROUNDUP
NATIONAL WEATHER SERVICE WAKEFIELD VA
500 AM EDT WED MAY 04 2016

Note: "fair" indicates few or no clouds below 12,000 feet with no
significant weather and/or obstructions to visibility. * = Denotes
station may not report precipitation (e.g., rain,snow,etc.),
thunder or fog.

VAZ042-051-052>054-056-041000-
NORTHERN VIRGINIA

CITY           SKY/WX    TMP DP  RH WIND       PRES   REMARKS
WASH NATIONAL  CLOUDY    56  53  90 NE9       29.74F
DULLES         CLOUDY    55  53  93 CALM      29.74S
FORT BELVOIR   CLOUDY    55  54  94 CALM      29.74S
QUANTICO       CLOUDY    57  55  93 E6        29.74F
FREDERICKSBRG* CLOUDY    58  58 100 CALM      29.72F
STAFFORD*      CLOUDY    56  55  94 N3        29.77F FOG
WARRENTON      CLOUDY    57  53  85 CALM      29.73S FOG
CULPEPER*      CLOUDY    56  56 100 CALM      29.74F FOG
MANASSAS*      CLOUDY    57  57 100 CALM      29.74F
LEESBURG*      CLOUDY    55  55 100 SE3       29.75S FOG
WINCHESTER     FAIR      50  50 100 CALM      29.73F FOG
FRONT ROYAL*   CLOUDY    54  54 100 CALM      29.72S
LURAY*         CLOUDY    54  54 100 CALM      29.73F FOG
$$

VAZ048-049-060>072-079>083-041000-
CENTRAL AND SOUTH CENTRAL VIRGINIA

CITY           SKY/WX    TMP DP  RH WIND       PRES   REMARKS
RICHMOND       LGT RAIN  59  58  96 N8        29.70S
CHESTERFIELD*  CLOUDY    61  48  63 N6        29.71F
PETERSBURG*    CLOUDY    62  62 100 N7        29.69F FOG
HANOVER        CLOUDY    58  57  97 VRB3      29.72F FOG
TAPPAHANNOCK*  LGT RAIN  56  56 100 NE3       29.72S
QUINTON*       CLOUDY    59  59 100 CALM      29.70S FOG
CHARLOTTSVILLE CLOUDY    57  54  89 E6        29.73S FOG
GORDONSVILLE*  CLOUDY    56  56 100 NE3       29.72F FOG
ORANGE*        CLOUDY    55  55 100 CALM      29.75S FOG
LOUISA*        CLOUDY    61  59  94 CALM      29.71F FOG
BUMPASS*       CLOUDY    57  57  98 CALM      29.72F
FARMVILLE*     CLOUDY    60  60 100 N5        29.71S FOG
CREWE*         CLOUDY    59  59 100 N3        29.69F
FORT PICKETT*  NOT AVBL
CHASE CITY*    CLOUDY    60  58  95 CALM      29.70F
CLARKSVILLE*   PTSUNNY   59  59 100 CALM      29.69F
SOUTH HILL*    CLOUDY    59  59 100 N7        29.74S
LAWRENCEVILLE* CLOUDY    60  60 100 NW5       29.69R
EMPORIA*       CLOUDY    59  59 100 NW6       29.69S
$$

VAZ088>098-041000-
SOUTHEAST VIRGINIA

CITY           SKY/WX    TMP DP  RH WIND       PRES   REMARKS
NORFOLK        CLOUDY    58  56  93 NE9       29.68S
VIRGINIA BEACH FOG       60  55  83 NE12      29.67R VSB 1
NORFOLK NAVAL  CLOUDY    59  57  93 NE9       29.70S
WEST POINT*    CLOUDY    58  57  99 CALM      29.72F
SALUDA*        CLOUDY    55  55 100 NE5       29.71S
NEWPORT NEWS   CLOUDY    57  56  96 NE6       29.69S
LANGLEY AFB    CLOUDY    58  57  99 N12       29.69R
FORT EUSTIS    CLOUDY    57  57 100 NE7       29.67R
WILLIAMSBURG*  CLOUDY    59  57  94 NE3       29.70S
HR EXEC AP*    CLOUDY    63  59  88 NE6       29.70R
FRANKLIN*      CLOUDY    60  60  97 N3        29.67S
US460-WAKEFLD  CLOUDY    61  58  90 NE5       29.68F
$$

VAZ020-022-025-037-045-041000-
WEST CENTRAL AND SOUTHWEST VIRGINIA

CITY           SKY/WX    TMP DP  RH WIND       PRES   REMARKS
STAUNTON*      MOCLDY    53  53  98 CALM      29.76S
WAYNESBORO*    CLOUDY    54  53  97 NW3       29.74S
HOT SPRINGS VA FAIR      45  45 100 W12       29.73F
LYNCHBURG      MOCLDY    55  49  80 CALM      29.74F
DANVILLE       FAIR      56  50  80 NW5       29.72F
SOUTH BOSTON*  CLOUDY    59  58  96 N6        29.71F
MARTINSVILLE   CLOUDY    51  50  95 N3        29.77S
ROANOKE        CLOUDY    52  47  83 CALM      29.76F
BLACKSBURG     CLOUDY    48  47  95 CALM      29.80S
DUBLIN*        CLOUDY    52  48  86 CALM      29.78S
MARION*        CLOUDY    49  44  83 CALM      29.81S
HILLSVILLE*    CLOUDY    49  44  81 NW7       29.76F
RICHLANDS*     CLOUDY    48  33  55 W5        29.79F
WISE*          CLOUDY    48  41  76 W5        29.81R
ABINGDON*      CLOUDY    53  45  74 CALM      29.79F
$$

MDZ021>025-VAZ099-100-041000-
SOUTHERN MARYLAND AND THE DELMARVA PENINSULA

CITY           SKY/WX    TMP DP  RH WIND       PRES   REMARKS
PATUXENT RIVER CLOUDY    53  50  89 NE7       29.72F
BAY BRIDGE APT NOT AVBL
LEONARDTOWN    CLOUDY    52  50  93 CALM      29.74F
DOVER          CLOUDY    50  50 100 NE8       29.74F
GEORGETOWN     CLOUDY    50  49  96 NE13      29.74F
EASTON         CLOUDY   N/A N/A N/A NE8       29.77F
CAMBRIDGE      CLOUDY    50  50 100 NE5       29.74S
SALISBURY      CLOUDY    51  50  96 NE8       29.72F
OCEAN CITY     CLOUDY    50  50 100 NE13      29.71F
WALLOPS ISLAND CLOUDY    52  51  97 NE6       29.72F
ACCOMACK*      CLOUDY    52  43  71 NE5       29.72R HAZE
$$

NCZ012>017-030>032-041000-
NORTH CENTRAL AND EASTERN NORTH CAROLINA

CITY           SKY/WX    TMP DP  RH WIND       PRES   REMARKS
ROANOKE RAPIDS FOG       59  59 100 CALM      29.68R VSB 3/4
RALEIGH        PTCLDY    59  56  89 CALM      29.70F
ELIZABETH CITY CLOUDY    63  62  97 CALM      29.67S
AHOSKIE*       MOCLDY    59  58  97 CALM      29.68R FOG
EDENTON*       CLOUDY    63  63 100 CALM      29.68R
CURRITUCK*     NOT AVBL
KILL DEVIL HLS CLOUDY    64  62  96 CALM      29.66R
MANTEO         NOT AVBL
CAPE HATTERAS  CLOUDY    67  66  97 CALM      29.67F
TARBORO*       FAIR      61  60  98 CALM      29.68S FOG
GOLDSBORO      MOCLDY    62  62 100 CALM      29.66S
WASHINGTON     MOCLDY    62  61  97 CALM      29.67S
GREENVILLE     CLOUDY    63  63 100 SW5       29.71R
NEW BERN       CLEAR     63  60  90 SW3       29.68F
WILMINGTON     PTCLDY    68  62  81 SW10      29.69R
$$

VAZ048-041000-
ELSEWHERE

CITY           SKY/WX    TMP DP  RH WIND       PRES   REMARKS
HARRISBURG PA  CLOUDY    53  51  93 E8        29.74S FOG
BALTIMORE      CLOUDY    53  51  93 E10       29.74F
ANNAPOLIS      CLOUDY    54  51  90 NE5       29.75S
ANDREWS AFB    CLOUDY    54  52  94 NE9       29.72F
PHILADELPHIA   LGT RAIN  51  47  86 NE5       29.79S
HENDERSON NC   CLOUDY   N/A N/A N/A N7        29.69F
GREENSBORO     PTCLDY    57  50  77 N5        29.72F
ROCKY MOUNT    MOCLDY    61  61 100 CALM      29.67F
$$

VAZ100-041000-
MARINE

STATION/POSITION TIME  TEMP    WIND        PRES    WAVE   SWELL
                       AIR SEA DIR/SP/G            HT/PER HT/PER
                 (UTC) (F)     (DEG/KT/KT) (MB)    (FT/S) (FT/S)
BRANDYWINE LGT   0800   50      60/ 13/ 17 1007.6F
CAPE MAY NJ      0800   49 58   50/  6/ 11 1007.2F
LEWES DE         0800   50 57   50/ 13/ 15 1007.5F
15NM E FENWICK I 0850   50 51              1006.3F   5/ 6
OCEAN-CITY-INLET 0800   50 55   40/  8/ 12 1006.4F
WACHAPREAGUE VA  0800   53 63   20/  8/ 12 1005.1F
THOMAS POINT MD  0900   53 58   60/  8/  9 1008.5F
GOOSES REEF MD   0800   54 59   70/ 10/ 12 1008.1F   1/ 2
COVE POINT MD    0800   52      80/ 10/ 12 1007.6F
SOLOMONS ISLAND  0800   54 61   50/  7/  9   N/A
BISHOPS HEAD MD  0800   53 63   30/ 12/ 14 1006.1F
PINEY POINT MD   0800           60/  7/  9   N/A
POTOMAC MD       0800   54 60   40/ 10/ 14 1005.7F   1
CAMBRIDGE MD     0800   52 62   20/  8/ 11 1006.4F
LEWISETTA VA     0800   55 63   60/  7/ 12 1006.3F
RAPPAHANNOCK LGT 0800           30/ 17/ 19 1005.8F
STINGRAY PT      0800   56 62   50/ 12/ 14 1006.3F   2/ 3
YORK RVR RNG VA  0800   58      30/ 14/ 16 1004.8F
YORKTOWN VA      0800   58 63   20/  9/ 11 1005.4F
JAMESTOWN VA     0800   59 67   50/  6/  8   N/A     0
DOMINION TERM VA 0800   60      50/  9/ 12 1004.7F
KIPTOPEKE VA     0800      62   50/  7/ 10   N/A
CHES BAY BRIDGE  0800   58 63  340/ 10/ 13 1004.8F
CAPE HENRY VA    0800   57      20/ 16/ 17   N/A
CHESAPEAKE LGHT  0800   55      10/ 19/ 20 1005.1F
WILLOUBY STN VA  0800   59      20/ 14/ 15 1005.9F
CAPE HENRY BUOY  0812      59                N/A     3/ 4
CAPE CHARLES BUO 0826      58                N/A     3/ 4   2/ 8
OFFSHORE WE BUOY 0821      57                N/A     3/ 6   2/ 8
64NM E OF VA BCH 0850   55 54  140/  4/  6 1004.7R   4/ 7   3/ 7
44100 DUCK FRF   0824      60                N/A     3/ 7
44056 DUCK FRF   0811      59                N/A     2/ 7
OREGON INLET NC  0800   68 71  180/  4/  5 1004.1F
HATTERAS NC      0800   68 69  270/ 12/ 14 1005.2R
DIAMOND SHLS NC  0850   69 72  310/ 12/ 16 1004.6R   4/ 7   3/ 7
CAPE LOOKOUT NC  0900   68     240/  6/  8 1004.5R
$$




USA.gov is the U.S. government's official web portal to all federal, state and local government web resources and services.